Location: Chaumontel
(49.1247°N, 2.4324°E)
Time: 10:14:13
(UTC+00:00)

CZ-4C R/B - Visible Passes

Search period start: 28 September 2023 00:00
Search period end: 08 October 2023 00:00
Orbit: 452 x 603 km, 98.1° (Epoch: 27 September)

Date Brightness Start Highest point End Pass type
(mag) Time Alt. Az. Time Alt. Az. Time Alt. Az.
28 Sep 4.6 18:17:31 10° NE 18:19:33 15° E 18:21:35 10° SE visible
28 Sep 4.3 19:50:48 10° N 19:54:01 40° WNW 19:57:15 10° SW visible
29 Sep 6.1 05:03:16 10° ESE 05:05:50 18° ENE 05:08:21 10° NNE visible
29 Sep 4.9 18:07:09 10° ENE 18:08:13 11° E 18:09:16 10° ESE visible
29 Sep 3.6 19:39:28 10° N 19:42:49 55° WNW 19:46:11 10° SSW visible
30 Sep 6.3 04:52:45 10° E 04:54:42 14° ENE 04:56:38 10° NNE visible
30 Sep 3.0 19:28:09 10° NNE 19:31:35 78° WNW 19:35:01 10° SSW visible
01 Oct 6.6 04:42:39 10° ENE 04:43:34 11° ENE 04:44:30 10° NE visible
01 Oct 2.8 19:16:53 10° NNE 19:20:19 75° ESE 19:23:46 10° S visible
01 Oct 6.5 20:53:44 10° NW 20:54:03 10° WNW 20:54:22 10° WNW visible
02 Oct 3.0 19:05:39 10° NNE 19:09:01 53° ESE 19:12:26 10° S visible
02 Oct 6.2 20:41:12 10° NNW 20:42:54 13° WNW 20:44:35 10° W visible
03 Oct 3.4 18:54:27 10° NNE 18:57:41 38° E 18:59:39 20° SSE visible
03 Oct 5.9 20:29:24 10° NNW 20:31:42 17° WNW 20:34:02 10° WSW visible
04 Oct 3.8 18:43:18 10° NE 18:46:20 28° E 18:46:31 28° ESE visible
04 Oct 5.4 20:17:46 10° NNW 20:20:29 22° WNW 20:21:41 18° W visible
05 Oct 4.5 18:32:14 10° NE 18:34:01 19° ENE 18:34:01 19° ENE visible
05 Oct 4.9 20:06:13 10° N 20:09:12 29° WNW 20:09:12 29° WNW visible
06 Oct 5.8 05:18:11 10° ESE 05:21:01 23° ENE 05:23:48 10° NNE visible
06 Oct 5.1 18:21:17 10° NE 18:21:43 12° ENE 18:21:43 12° ENE visible
06 Oct 4.7 19:54:42 10° N 19:56:54 30° NNW 19:56:54 30° NNW visible
07 Oct 6.0 05:07:21 10° ESE 05:09:46 18° ENE 05:12:08 10° NNE visible
07 Oct 4.9 19:43:14 10° N 19:44:43 23° N 19:44:43 23° N visible
